Location: Niedergestelen
(46.3129°N, 7.7822°E)
Time: 15:58:44
(UTC+00:00)

Cosmos 2369 Rocket - Pass Details

Date: 01 December 2020
Orbit: 829 x 852 km, 71.0° (Epoch: 27 January)

Event Time Altitude Azimuth Distance (km) Brightness Sun altitude
Rises 16:07:05 0° 338° (NNW) 3,425 5.3 -4.3°
Reaches altitude 10° 16:09:53 10° 350° (N) 2,483 4.5 -4.7°
Maximum altitude 16:14:49 29° 50° (NE) 1,496 3.0 -5.5°
Drops below altitude 10° 16:19:42 10° 110° (ESE) 2,459 4.2 -6.2°
Sets 16:22:27 0° 121° (ESE) 3,386 5.0 -6.7°
